Coffeyville, KS

9:41 PM CDT on April 30, 2017 (GMT -0500)
Coffeyville Municipal

Weather History for KCFV - September, 2013

Change the Weather History Date:

Saturday, September 14, 2013

  Actual Average Record
Temperature  
Mean Temperature 70 °F -  
Max Temperature 84 °F 81 °F 96 °F (2000)
Min Temperature 55 °F 58 °F 50 °F (1999)
Cooling Degree Days 4    
Growing Degree Days 20 (Base 50)    
Moisture  
Dew Point 54 °F    
Average Humidity 59    
Maximum Humidity 84    
Minimum Humidity 38    
Precipitation  
Precipitation 0.00 in - - ()
Sea Level Pressure  
Sea Level Pressure 30.01 in    
Wind  
Wind Speed 4 mph (ESE)    
Max Wind Speed 9 mph    
Max Gust Speed -    
Visibility 10 miles    
Events      
Averages and records for this station are not official NWS values.
T = Trace of Precipitation, MM = Missing Value Source: NWS Daily Summary

Daily Weather History Graph

Daily Weather History Graph

Search for Another Location

Airport or City:

Trip Planner

Search our weather history database for the weather conditions in past years. The results will help you decide how hot, cold, wet, or windy it might be!

Date:

Astronomy

Sep. 14, 2013 Rise Set
Actual Time 7:03 AM CDT 7:31 PM CDT
Civil Twilight 6:37 AM CDT 7:57 PM CDT
Nautical Twilight 6:07 AM CDT 8:27 PM CDT
Astronomical Twilight 5:35 AM CDT 8:58 PM CDT
Moon 4:08 PM CDT (9/14) 1:42 AM CDT (9/14)
Length of Visible Light 13h 19m
Length of Day
12h 27m
Waxing Gibbous, 72% of the Moon is Illuminated
Sep 14
Waxing Gibbous
Sep 19
Full
Sep 26
Last Quarter
Oct 4
New
Oct 11
First Quarter

Hourly Weather History & Observations

Time (CDT) Temp. Heat Index Dew Point Humidity Pressure Visibility Wind Dir Wind Speed Gust Speed Precip Events Conditions
12:52 AM 60.1 °F - 52.0 °F 75% 30.04 in 10.0 mi Calm Calm - N/A   Clear
1:52 AM 60.1 °F - 51.1 °F 72% 30.03 in 10.0 mi NE 3.5 mph - N/A   Clear
2:52 AM 60.1 °F - 51.1 °F 72% 30.03 in 10.0 mi NE 3.5 mph - N/A   Clear
3:52 AM 59.0 °F - 51.1 °F 75% 30.03 in 10.0 mi Calm Calm - N/A   Clear
4:52 AM 55.9 °F - 50.0 °F 80% 30.03 in 10.0 mi ENE 4.6 mph - N/A   Clear
5:52 AM 55.9 °F - 51.1 °F 84% 30.03 in 10.0 mi ENE 5.8 mph - N/A   Clear
6:52 AM 55.9 °F - 51.1 °F 84% 30.04 in 10.0 mi East 5.8 mph - N/A   Clear
7:52 AM 57.0 °F - 52.0 °F 83% 30.06 in 10.0 mi ENE 3.5 mph - N/A   Clear
8:52 AM 63.0 °F - 53.1 °F 70% 30.07 in 10.0 mi East 8.1 mph - N/A   Clear
9:52 AM 69.1 °F - 54.0 °F 58% 30.08 in 10.0 mi ESE 5.8 mph - N/A   Clear
10:52 AM 73.9 °F - 54.0 °F 50% 30.08 in 10.0 mi SE 6.9 mph - N/A   Clear
11:52 AM 75.0 °F - 54.0 °F 48% 30.06 in 10.0 mi SE 9.2 mph - N/A   Clear
12:52 PM 79.0 °F - 55.0 °F 44% 30.05 in 10.0 mi SSE 9.2 mph - N/A   Clear
1:52 PM 81.0 °F 80.7 °F 55.0 °F 41% 30.02 in 10.0 mi ESE 5.8 mph - N/A   Clear
2:52 PM 82.9 °F 82.1 °F 55.9 °F 39% 29.99 in 10.0 mi Variable 4.6 mph - N/A   Clear
3:52 PM 84.0 °F 83.0 °F 55.9 °F 38% 29.97 in 10.0 mi SE 6.9 mph - N/A   Clear
4:52 PM 82.9 °F 82.1 °F 55.9 °F 39% 29.96 in 10.0 mi Calm Calm - N/A   Clear
6:52 PM 80.1 °F 80.4 °F 57.0 °F 45% 29.95 in 10.0 mi SE 5.8 mph - N/A   Clear
7:52 PM 75.0 °F - 57.0 °F 53% 29.95 in 10.0 mi ESE 4.6 mph - N/A   Clear
8:52 PM 73.0 °F - 57.0 °F 57% 29.95 in 10.0 mi ESE 6.9 mph - N/A   Clear
9:52 PM 73.0 °F - 55.9 °F 55% 29.95 in 10.0 mi SE 5.8 mph - N/A   Clear
10:52 PM 72.0 °F - 54.0 °F 53% 29.96 in 10.0 mi SE 5.8 mph - N/A   Clear
11:52 PM 72.0 °F - 54.0 °F 53% 29.96 in 10.0 mi SSE 8.1 mph - N/A   Clear